Regional Weather Roundup
Issued by NWS

Home | Current Version | Previous Version | Text Only | Print | Product List | Glossary On
Versions: 1 2 3 4 5 6 7 8 9 10 11 12 13 14 15 16 17 18 19 20 21 22 23 24 25 26 27 28 29 30 31 32 33 34 35 36 37 38 39 40 41 42 43 44 45 46 47 48 49 50
000
ASUS43 KLMK 070810
RWRKY
KENTUCKY REGIONAL WEATHER ROUNDUP
NATIONAL WEATHER SERVICE LOUISVILLE KY
300 AM EST SUN FEB 07 2016

NOTE "FAIR" INDICATES FEW OR NO CLOUDS BELOW 12,000 FEET
WITH NO SIGNIFICANT WEATHER AND/OR OBSTRUCTIONS TO VISIBILITY.

KYZ001>023-026-027-061>063-070>075-070900-
WESTERN AND SOUTH CENTRAL KENTUCKY

CITY           SKY/WX    TMP DP  RH WIND       PRES   REMARKS
PADUCAH        CLEAR     35  22  58 SW6       30.21F WCI  30
HENDERSON      CLEAR     34  21  60 SW8       30.20F WCI  27
OWENSBORO      CLEAR     35  25  67 S6        30.21F WCI  30
HOPKINSVILLE   CLEAR     35  20  55 SW2       30.23F
BOWLING GREEN  CLEAR     29  23  78 CALM      30.23F
GLASGOW        CLEAR     27  26  94 CALM      30.22F
$$

KYZ024-025-028>034-038-045-046-053-070900-
NORTH CENTRAL KENTUCKY

CITY           SKY/WX    TMP DP  RH WIND       PRES   REMARKS
LOUISVILLE/SDF CLEAR     33  23  66 SE5       30.20F WCI  29
LOUISVILLE/LOU CLEAR     31  25  78 CALM      30.21S
FORT KNOX      CLEAR     31  21  66 SW3       30.18F
$$

KYZ035>037-039>044-047>052-055>060-089>105-070900-
NORTHEAST KENTUCKY

CITY           SKY/WX    TMP DP  RH WIND       PRES   REMARKS
LEXINGTON      CLEAR     32  22  66 SW6       30.19F WCI  26
COVINGTON      CLEAR     34  23  64 SW8       30.17F WCI  27
FRANKFORT      PTCLDY    27  20  75 CALM      30.19F
$$

KYZ054-064>069-076>088-106>120-070900-
SOUTHEAST KENTUCKY

CITY           SKY/WX    TMP DP  RH WIND       PRES   REMARKS
JACKSON        CLEAR     35  19  52 W5        30.18F WCI  31
LONDON         CLEAR     26  21  81 CALM      30.20F
SOMERSET       CLEAR     27  23  86 CALM      30.23F
MIDDLESBORO    CLEAR     27  26  93 CALM      30.22F
MONTICELLO     SUNNY     20  18  92 W9        30.23F WCI   9
$$




USA.gov is the U.S. government's official web portal to all federal, state and local government web resources and services.